OpenBCM V1.13 (Linux)

Packet Radio Mailbox

DB0FHN

[JN59NK Nuernberg]

 Login: GUEST





  
I0OJJ  > AMSAT    17.09.26 03:06l 325 Lines 15341 Bytes #999 (0) @ WW
BID : 70U_IR0EQ
Read: OE5RCO GUEST DJ6UX
Subj: 2Line Orbital Elements
Path: DB0FHN<OE2XZR<OK1TOR<SR6DWH<SR1BSZ<EA2RCF<IR0EQ
Sent: 260917/0027z @:IR0EQ.ITA.EU [Rome] $:70U_IR0EQ

>From i0ojj@rgate.ampr.org Thu Sep 17 02:27:29 2026
Received: from rgate.ampr.org by rgate.ampr.org (JNOS2.0q.1) with SMTP
	id AA9102 ; Thu, 17 Sep 2026 02:27:29 +0200
Received: by rgate.ampr.org with SMTP
	id AA9099 ; Thu, 17 Sep 2026 02:27:03 +0200
Message-Id: <9100@rgate.ampr.org>
>From: i0ojj@rgate.ampr.org

SB KEPS @ AMSAT  $ORB26260.1
2Line Orbital Elements 26260.AMSAT

QST de W1STR

AMSAT Orbital Elements for Amateur Satellites in TLE Format
>From Orbital Analysis Office
New England Sci-Tech STEM Education Center
Natick MA September 17, 2026
To all radio amateurs


These element sets describe the orbits of various satellites 
in use by the amateur radio community. For details see:
www.amsat.org/keplerian-elements-formats/

A daily update of element sets is available at:
www.amsat.org/tle/daily-bulletin.txt
or without bulletin text:
www.amsat.org/tle/dailytle.txt


AO-07
1 07530U 74089B   26259.27278076 -.00000052  00000-0 -34258-4 0  9991
2 07530 101.9920 273.4717 0012028 318.7953 106.3140 12.53699618371937
UO-11
1 14781U 84021B   26259.16271791  .00001123  00000-0  11932-3 0  9990
2 14781  97.8174 223.7853 0006151 237.5561 122.5063 14.90994362270680
LO-19
1 20442U 90005G   26259.02001505  .00000049  00000-0  34262-4 0  9997
2 20442  98.8821 283.3159 0010595 302.6096  57.4064 14.34144070915411
AO-27
1 22825U 93061C   26259.17991124  .00000064  00000-0  41414-4 0  9994
2 22825  98.6794 326.5213 0008254 185.8492 174.2596 14.30961501720016
FO-29
1 24278U 96046B   26258.36149777 -.00000010  00000-0  27591-4 0  9995
2 24278  98.5168  94.8709 0349177 222.3008 135.0717 13.53278042485362
GO-32
1 25397U 98043D   26259.23929679  .00000025  00000-0  30951-4 0  9990
2 25397  99.0154 254.3295 0000967   9.3195 350.8000 14.24442978464291
ISS
1 25544U 98067A   26259.14303184  .00007008  00000-0  13461-3 0  9991
2 25544  51.6310 209.9325 0004908 145.2560 214.8750 15.49133683585853
NO-44
1 26931U 01043C   26258.67802758  .00000077  00000-0  59589-4 0  9999
2 26931  67.0531  10.2143 0005766 272.5323  87.5119 14.31983890303401
SO-50
1 27607U 02058C   26259.11627866  .00000772  00000-0  10857-3 0  9998
2 27607  64.5518 207.6143 0071924 245.7739 113.5840 14.83213872277946
CO-55
1 27844U 03031E   26259.00670951  .00000189  00000-0  10060-3 0  9992
2 27844  98.6771 266.4390 0008403 283.8530  76.1714 14.24381755204607
RS-22
1 27939U 03042A   26259.35120681  .00000454  00000-0  78054-4 0  9990
2 27939  98.3479  86.3124 0011056 346.2285 134.9097 14.73600547228977
CO-65
1 32785U 08021C   26259.24321160  .00005222  00000-0  32360-3 0  9997
2 32785  97.8381 242.6546 0010364  80.8175 279.4225 15.10173780998937
CO-66
1 32791U 08021J   26259.25133438  .00018995  00000-0  55043-3 0  9998
2 32791  97.7569 261.7247 0002832  38.8822 321.2624 15.35607905  1240
RS-30
1 32953U 08025A   26259.28015053 -.00000012  00000-0 -16098-3 0  9997
2 32953  82.5018 298.7865 0020697 112.1175 248.2105 12.43182879831015
SRMSAT
1 37841U 11058D   26259.26210497  .00000383  00000-0  64229-4 0  9994
2 37841  19.9708 228.2029 0011950 125.7172 262.6825 14.11592741770702
ZACUBE-1
1 39417U 13066B   26259.17537500  .00004643  00000-0  35498-3 0  9991
2 39417  97.8146 221.9827 0039581 308.7583  51.0107 15.01818380694381
Delfi-N3xt
1 39428U 13066N   26259.23570345  .00005424  00000-0  46359-3 0  9990
2 39428  97.8287 179.5028 0071428 263.6584  95.6499 14.96098702688232
GOMX-1
1 39430U 13066Q   26259.28762439  .00001564  00000-0  23873-3 0  9992
2 39430  97.6432  94.0088 0128672 144.1417 216.8513 14.69699153683296
LO-74
1 39440U 13066AA  26259.28147137  .00004018  00000-0  36734-3 0  9992
2 39440  97.8989 208.7147 0058761  85.2920 275.5008 14.94274905690595
AO-73
1 39444U 13066AE  26259.17032328  .00005920  00000-0  35782-3 0  9994
2 39444  97.8386 232.6409 0033548 253.1143 106.6406 15.10605227693397
DTUSAT-2
1 40030U 14033W   26258.75728891  .00005974  00000-0  31453-3 0  9992
2 40030  98.0920 262.3341 0006089 290.4915  69.5662 15.16028818666407
LILACSAT-2
1 40908U 15049K   26259.25846402  .00018442  00000-0  28316-3 0  9997
2 40908  97.4557 299.7065 0004594 279.4256  80.6478 15.54323046609882
Lapan A3
1 41603U 16040E   26259.29202154  .00003416  00000-0  10730-3 0  9992
2 41603  97.1571 252.5133 0011709  55.1027 305.1315 15.33605709568775
CAS-2T
1 41847U 16066G   26259.24049050  .00000999  00000-0  14936-3 0  9994
2 41847  98.3752 333.9277 0340588 213.0666 144.8817 14.44844288517942
TechnoSat
1 42829U 17042E   26259.19216979  .00003291  00000-0  23276-3 0  9995
2 42829  97.4399  53.4822 0018246 140.1698 220.0872 15.05404182500390
AO-91
1 43017U 17073E   26258.53201310  .00006746  00000-0  28668-3 0  9997
2 43017  97.4549 123.9019 0147826  16.9755 343.6346 15.13914463479052
S-Net D
1 43186U 18014G   26258.16695343  .00004319  00000-0  21941-3 0  9993
2 43186  97.5251 162.3896 0009789  70.6141 289.6150 15.17380945472401
S-Net B
1 43187U 18014H   26259.16942965  .00004517  00000-0  22941-3 0  9991
2 43187  97.5254 163.3748 0010304  63.6390 296.5900 15.17357221472552
S-Net A
1 43188U 18014J   26258.69289495  .00004369  00000-0  22180-3 0  9991
2 43188  97.5266 163.1277 0010236  65.6015 294.6285 15.17393041472488
S-Net C
1 43189U 18014K   26258.64628974  .00003802  00000-0  19367-3 0  9990
2 43189  97.5282 163.1701 0011488  58.9622 301.2737 15.17342196471029
Ten-Koh
1 43677U 18084G   26258.99218161  .00000982  00000-0  77422-4 0  9993
2 43677  98.0731  95.1979 0009628 164.4715 195.6806 15.03247404429808
PO-101
1 43678U 18084H   26259.32248819  .00001155  00000-0  96255-4 0  9993
2 43678  98.1170  99.5429 0011670 222.7526 137.2789 15.00729577429886
QO-100
1 43700U 18090A   26259.21965303  .00000139  00000-0  00000-0 0  9998
2 43700   0.0178 235.9097 0002456 327.2791 256.8809  1.00273488 28589
MinXSS-2
1 43758U 18099A   26258.21385947  .00046727  00000-0  73967-3 0  9997
2 43758  97.4443 337.5159 0005059 287.0111  73.0588 15.53288045428075
AO-95
1 43770U 18099N   26259.12890697  .00010819  00000-0  39296-3 0  9995
2 43770  97.4284 319.1059 0008895  36.1598 324.0241 15.28437462427109
SNUSat 2
1 43782U 18099AA  26259.09942989  .00007089  00000-0  30367-3 0  9991
2 43782  97.3963 311.1182 0009248 346.2262  13.8721 15.23048448426865
SnugLite
1 43784U 18099AC  26259.10118318  .00010132  00000-0  36361-3 0  9999
2 43784  97.3771 312.5529 0002056   5.0982 355.0278 15.28880797427206
ITASat 1
1 43786U 18099AE  26258.56633255  .00005401  00000-0  25314-3 0  9991
2 43786  97.3934 308.2915 0013200  43.1288 317.0979 15.20027480426631
EAGLET 1
1 43790U 18099AJ  26259.10745733  .00002908  00000-0  16571-3 0  9996
2 43790  97.4136 306.3589 0011899  38.5767 321.6312 15.13515971426089
ESEO
1 43792U 18099AL  26259.04008074  .00001555  00000-0  11513-3 0  9999
2 43792  97.3907 292.5178 0012565  29.8100 330.3840 15.04471263425460
JO-97
1 43803U 18099AX  26257.40456493  .00013172  00000-0  37443-3 0  9990
2 43803  97.4033 320.6747 0004078 322.4190  37.6768 15.36281570427317
Suomi 100
1 43804U 18099AY  26259.15045529  .00011363  00000-0  38959-3 0  9992
2 43804  97.4083 319.2827 0008309 324.9219  35.1474 15.30313398427322
ISAT
1 43879U 18111D   26258.78962488  .00460007  89499-4  10759-2 0  9992
2 43879  97.5771 202.5908 0008125 132.5734 227.6229 15.96919152425443
UWE-4
1 43880U 18111E   26259.11397830  .00038701  00000-0  64671-3 0  9997
2 43880  97.5818 192.0676 0006912  20.9331 339.2203 15.51804504424858
Prox-1
1 44339U 19036A   26259.23919836  .00013912  00000-0  12930-2 0  9990
2 44339  23.9940 225.0957 0005242  17.1912 342.8765 14.92518402387083
Taurus 1
1 44530U 19059C   26259.29738869  .00003760  00000-0  59521-3 0  9997
2 44530  98.6502  69.8882 0008830  31.7510 328.4227 14.72895428372050
TO-108
1 44881U 19093C   26259.24959228  .00000496  00000-0  61823-4 0  9995
2 44881  97.7455 329.2291 0014276 141.9081 218.3147 14.86635195364946
RS-44
1 44909U 19096E   26259.31862430  .00000000  00000-0 -37039-4 0  9999
2 44909  82.5170 279.1506 0216407 291.4232  66.3908 12.79749358314009
SALSAT
1 46495U 20068K   26258.76903847  .00006582  00000-0  22286-3 0  9995
2 46495  97.8886 267.4466 0009018 355.8064   4.3098 15.30929993329211
CSS (TIANHE-1)
1 48274U 21035A   26258.92907530  .00018211  00000-0  22268-3 0  9990
2 48274  41.4675 131.0688 0002654 282.1202  77.9339 15.59975484307336
TeikyoSat 4
1 49396U 21102B   26259.06041079  .00001144  00000-0  74536-4 0  9997
2 49396  97.3627 285.0052 0011523 348.1728  11.9229 15.09775813266435
Z-Sat
1 49399U 21102E   26259.32842564  .00003052  00000-0  14929-3 0  9996
2 49399  97.3263 291.8914 0014567 291.3847  68.5833 15.18859050267276
KOSEN 1
1 49402U 21102H   26259.07249726  .00006270  00000-0  23219-3 0  9991
2 49402  97.3104 299.4962 0011716 241.6563 118.3495 15.27946143267894
HO-113
1 50466U 21131B   26259.26911707  .00000356  00000-0  12336-3 0  9998
2 50466  98.4975 351.1632 0004189 168.6528 191.4756 14.41425916248233
SNUGLITE 2
1 52899U 22065F   26259.24771865  .00000769  00000-0  15438-3 0  9998
2 52899  98.2337  43.9934 0008704  97.5499 262.6692 14.64487508224324
UmKA 1 (RS40S)
1 57172U 23091G   26259.25990589  .00005716  00000-0  25521-3 0  9995
2 57172  97.4951 317.6168 0013154 155.1183 205.0690 15.21689314177859
CubeBel-2 (EU11S)
1 57175U 23091K   26259.27777245  .00012348  00000-0  41258-3 0  9996
2 57175  97.4951 323.3943 0010267 145.7150 214.4756 15.31112147178234
RS-38S
1 57189U 23091Z   26259.27185753  .00017993  00000-0  47231-3 0  9996
2 57189  97.5001 330.7169 0008082 104.4438 255.7705 15.38662398178687
SONATE-2
1 59112U 24043Q   26259.15933619  .00058731  00000-0  57337-3 0  9994
2 59112  97.5626  55.6912 0005344 221.5810 138.5044 15.66002835142095
